Погода Нижний Новгород

Погода Нижний Новгород : погода сейчас, прогноз погоды и архив. Всё, что Вы хотите узнать о погоде Нижний Новгород!

Хотите узнать прогноз погоды в Нижнем Новгороде? Тогда Вам сюда: Погода в Нижнем Новгороде

Поиск расширенной информации на нашем сайте:

Другие новости

Новости СМИ2

Главная страница сайта

Новости сайта

03.07.2017

Напоминаем, что на нашем специализированном сайте Метеоцентр.Азия вы можете получить высокодетализированные автоматические прогнозы погоды по пунктам России, СНГ и мира в авиационном формате (включающие направление и скорость ветра, видимость, явления погоды, количество и форму облачности, нижнюю и верхнюю границу облачности).

Рекомендуем: Пуллер макси для собак: puller maxi игрушка для собак пуллер макси.

Погода Нижний Новгород - сегодня

Время (UTC), дата Ветер
(°,м/с) 
Видим.   Явления Облачность Т
(°С)
Тd
(°С)
f(%) Тe
(°С)
Pmin
(гПа)
dP
(гПа)
Po
(мм)
O2
(г/м3)
Тmin Tmax R s Состояние
почвы
00 17.09.17 250 (З) 1-2{05}  10 км    ясно 
+10.6 +8.4 86 +12  1020.3  751  290           
03 17.09.17 230 (ЮЗ) 1-2{04}  10 км    8/0 верхняя 
[Ci]
+9.2 +8 92 +10  1021.5  752  292  +9        влажная 
15 17.09.17 220 (ЮЗ) 1-1{06}  10 км    9/3 1000 м средняя, верхняя 
[Sc|Ac trans|Ci fib]
+15.3 +9.3 67 +17  1020.6  -0.6  751  285    +18.8       
03 18.09.17 тихо () -0{01}  10 км  {дождь}  10/6 1000 м средняя 
[Sc|Ac As]
+11.9 +10.5 91 +14  1018.2  -1.4  749  287  +11.9    0.3    влажная 
15 18.09.17 140 (ЮВ) 2-4{06}  10 км    4/0 средняя, верхняя 
[Ac trans|Ci fib]
+19 +11.8 63 +24  1009.5  -2.1  743  278    +20.9  0.3     
18 18.09.17 160 (Ю) 2-5{05}  10 км    4/0 верхняя 
[Ci fib]
+17.8 +11.5 67 +22  1008  -1.5  742  279           
21 18.09.17 тихо () -0{07}  10 км    4/0 верхняя 
[Ci fib]
+16.6 +11.7 73 +20  1006.7  -1.4  741  279           
00 19.09.17 190 (Ю) 2-5{06}  10 км    8/0 средняя 
[Ac trans]
+18.7 +10.3 58 +22  1006  -0.6  741  277           
03 19.09.17 210 (ЮЗ) 2-4{06}  10 км    8/0 средняя 
[Ac trans]
+17.3 +11.4 68 +21  1006.7  0.6  741  279  +16.6        влажная 
06 19.09.17 250 (З) 2-5{07}  10 км    3/0 верхняя 
[Ci fib]
+16.9 +11.2 69 +21  1007.3  0.6  742  279           
09 19.09.17 240 (ЮЗ) 2-10{11}  10 км    3/0 средняя 
[Ac trans]
+20.4 +6.1 39 +20  1007.1  742  277           
12 19.09.17 260 (З) 3-10{10}  10 км    9/9 600 м кучево-дожд. 
[Cb cap]
+17.2 +6.2 48 +18  1010.1  2.8  744  281           
15 19.09.17 260 (З) 2-7{10}  10 км    10/10 1000 м 
[Sc diur, vesp]
+14.9 +6.4 57 +16  1012.8  2.4  746  284    +20.7       
18 19.09.17 260 (З) 2-8{09}  10 км    10/10 600 м 
[Sc diur, vesp]
+14 +7 63 +15  1014.5  1.7  747  285           
21 19.09.17 260 (З) 3-6{09}  10 км    10/10 600 м 
[Sc diur, vesp]
+12.8 +7.3 69 +13  1016.4  1.7  748  287           
00 20.09.17 260 (З) 2-7{09}  10 км    ясно 
+10.9 +6.4 74 +11  1017.7  1.2  749  289           
03 20.09.17 280 (З) 1-4{07}  10 км    9/0 верхняя 
[Cc]
+8.7 +7 89 +10  1019.7  1.8  750  292  +8.7        влажная 
06 20.09.17 270 (З) 2-5{06}  10 км    10/3 600 м средняя, верхняя 
[Sc|Ac cast|Cc]
+10.6 +7.3 80 +11  1022.1  2.5  752  291           
09 20.09.17 270 (З) 2-6{06}  10 км    4/1 1000 м верхняя 
[Cu hum|Ci fib]
+15.1 +8 63 +16  1022.1  0.3  752  286           
12 20.09.17 310 (СЗ) 1-6{06}  10 км    6/6 1000 м 
[Cu hum]
+15.6 +7.4 58 +17  1022.8  0.7  753  286           
15 20.09.17 350 (С) 1-3{06}  10 км    8/3 1000 м средняя, верхняя 
[Sc|Ac trans|Ci fib]
+13.6 +8 69 +15  1023.8  0.9  754  288    +16.7       
18 20.09.17 тихо () -0{03}  10 км    4/0 верхняя 
[Ci fib]
+9.6 +8.4 92 +10  1025.1  754  292           
21 20.09.17 тихо () -0{01}  10 км    ясно 
+7.3 +6.7 96 +7  1026  0.7  755  295           
00 21.09.17 тихо () -0{01}  10 км    3/0 средняя 
[Ac trans]
+7.1 +6.7 97 +7  1027.4  1.3  756  296           
03 21.09.17 тихо () -0{01}  10 км    4/0 верхняя 
[Ci fib]
+7 +6.5 97 +7  1028.5  1.1  757  296  +6.6        влажная 
Время (UTC), дата Ветер
(°,м/с) 
Видим.   Явления Облачность Т
(°С)
Тd
(°С)
f(%) Тe
(°С)
Pmin
(гПа)
dP
(гПа)
Po
(мм)
O2
(г/м3)
Тmin Tmax R s Состояние
почвы

Для получения пояснительной информации подведите курсор к названию столбца.

ПОГОДА Нижний Новгород - архив

Всё, что Вы хотите узнать о погоде Нижний Новгород - удобно и подробно!

Выберите нужную дату (начиная с 1 января 2015* года) и нажмите кнопку "Найти".
Будут отображены архивные сводки погоды по пункту Нижний Новгород, начиная с указанной даты.


Отображать данные в формате CSV (для использования в таблицах Excel)


Внимание! Наш архив погоды предназначен исключительно для личного некоммерческого использования в познавательных целях. Если Вам необходимы официальные справки о состоянии погоды (для производственных, юридических, коммерческих и т.п. целей), обращайтесь в органы Росгидромета.

*Примечание: данная дата относится к архиву по метеостанциям СССР (Россия, СНГ, Балтия).
Архив по метеостанциям Зарубежной Европы и Азии (кроме Китая) хранится 10 дней, по другим регионам земного шара (Китай, Африка, Америка, Австралия, Океания) - 1 день.

Нижний Новгород - район местоположения метеостанции


Название, широта, долгота, высота метеостанции:
Нижний Новгород (Мыза) 56.3°ш. 44°д. 157 м над ур. моря [Российская Федерация]

Дополнительная информация

В oтличие oт бoльшинства пoгoдных сайтoв мы публикуем пoдрoбную метеoинфoрмацию в детальнoм прoфессиoнальнoм фoрмате.

Характеристики температуры и влажнoсти вoздуха измеряются на высoте 2 м в тени вдали oт зданий и деревьев.
Скoрoсть ветра измеряется на высoте 10 м (на урoвне рoста челoвека скoрoсть ветра ниже в 1.5-2 раза). Если метеoстанция нахoдится в гoрoде или в лесу, тo скoрoсть ветра занижена на 2-4 м/с пo сравнению с oткрытым местoм. Скoрoсть ветра над акватoриями крупных рек и oзёр, а также на вершинах хoлмoв на 2-5 м/с выше, чем в oбычных услoвиях.
Атмoсфернoе давление в разных тoчках местнoсти мoжет значительнo oтличаться oт давления на метеoстанции, в зависимoсти oт услoвий рельефа (при пoдъёме на 10 м давление пoнижается примернo на 1 мм рт.ст.).